ESUT Weather Reports


time (UTC)temp
C
wind
direction
speed
KPH
gust
KPH
rain 1hr
cm
rain 24hr
cm
rain mn
cm
humidity
%
barometer
mb
20260507123308 3 320 11.3 0.0 0.00 0.00 0.00 60 1014.0
20260507120307 3 320 11.3 0.0 0.00 0.00 0.00 51 1014.0
20260507113308 5 320 12.9 0.0 0.00 0.00 0.00 52 1014.0
20260507110307 3 270 9.7 0.0 0.00 0.00 0.00 48 1014.0
20260507103307 3 240 9.7 0.0 0.00 0.00 0.00 51 1014.0
20260507100308 3 270 8.0 0.0 0.00 0.00 0.00 51 1013.0
20260507093307 2 320 11.3 0.0 0.00 0.00 0.00 51 1013.0
20260507090308 2 0 8.0 0.0 0.00 0.00 0.00 51 1013.0
20260507083307 2 0 4.8 0.0 0.00 0.00 0.00 51 1013.0
20260507080308 2 300 9.7 0.0 0.00 0.00 0.00 59 1013.0
20260507073307 1 330 4.8 0.0 0.00 0.00 0.00 59 1012.0
20260507070307 1 0 4.8 0.0 0.00 0.00 0.00 69 1012.0
20260507063307 1 0 3.2 0.0 0.00 0.00 0.00 69 1012.0
20260507053307 0 0 0.0 0.0 0.00 0.00 0.00 74 1012.0
20260507050307 0 0 0.0 0.0 0.00 0.00 0.00 92 1012.0
20260507043308 -1 0 0.0 0.0 0.00 0.00 0.00 10 1011.0
20260507040308 -1 0 0.0 0.0 0.00 0.00 0.00 10 1011.0
20260507033307 -1 0 3.2 0.0 0.00 0.00 0.00 92 1011.0
20260507030306 -1 260 3.2 0.0 0.00 0.00 0.00 92 1011.0
20260507023307 -1 0 3.2 0.0 0.00 0.00 0.00 92 1011.0
20260507020307 -2 0 1.6 0.0 0.00 0.00 0.00 10 1011.0
20260507013307 -2 0 1.6 0.0 0.00 0.00 0.00 10 1011.0
20260507010306 -2 0 3.2 0.0 0.00 0.00 0.00 10 1011.0
20260507003307 -1 10 4.8 0.0 0.00 0.00 0.00 92 1010.0
20260507000307 -1 0 3.2 0.0 0.00 0.00 0.00 92 1010.0
20260506233307 -1 0 3.2 0.0 0.00 0.00 0.00 92 1010.0
20260506230307 0 0 4.8 0.0 0.00 0.00 0.00 86 1010.0
20260506223307 0 0 4.8 0.0 0.00 0.00 0.00 86 1010.0
20260506220307 0 310 4.8 0.0 0.00 0.00 0.00 86 1010.0
20260506213307 0 0 0.0 0.0 0.00 0.00 0.00 92 1010.0
20260506210307 0 40 4.8 0.0 0.00 0.00 0.00 10 1010.0
20260506203306 0 260 9.7 0.0 0.00 0.00 0.00 86 1009.0
20260506200306 0 240 8.0 0.0 0.00 0.00 0.00 80 1009.0
20260506193307 0 240 8.0 0.0 0.00 0.00 0.00 80 1009.0
20260506190306 1 260 4.8 0.0 0.00 0.00 0.00 74 1009.0
20260506183307 1 260 8.0 0.0 0.00 0.00 0.00 74 1009.0
20260506180307 2 290 4.8 0.0 0.00 0.00 0.00 69 1009.0
20260506173308 1 320 12.9 0.0 0.00 0.00 0.00 80 1008.0
20260506170307 1 310 14.5 0.0 0.00 0.00 0.00 74 1008.0
20260506163307 3 260 12.9 0.0 0.00 0.00 0.00 64 1008.0
20260506160307 1 240 16.1 0.0 0.00 0.00 0.00 74 1008.0
20260506153307 2 250 12.9 0.0 0.00 0.00 0.00 74 1008.0
20260506150307 2 310 11.3 0.0 0.00 0.00 0.00 59 1008.0
20260506143307 3 300 16.1 0.0 0.00 0.00 0.00 60 1008.0
20260506140307 3 310 16.1 0.0 0.00 0.00 0.00 60 1007.0
20260506133307 5 290 12.9 0.0 0.00 0.00 0.00 52 1007.0
20260506130308 5 310 16.1 0.0 0.00 0.00 0.00 56 1007.0